TimeCST,TemperatureF,Dew PointF,Humidity,Sea Level PressureIn,VisibilityMPH,Wind Direction,Wind SpeedMPH,Gust SpeedMPH,PrecipitationIn,Events,Conditions,WindDirDegrees,DateUTC
12:15 AM,49.3,48.4,97,29.81,3.0,ESE,11.5,17.3,N/A,,Overcast,120,2013-02-10 06:15:00
12:35 AM,51.1,50.2,97,29.80,4.0,SE,13.8,24.2,N/A,,Overcast,140,2013-02-10 06:35:00
12:55 AM,52.0,50.9,96,29.78,4.0,SE,13.8,19.6,N/A,,Overcast,130,2013-02-10 06:55:00
1:15 AM,51.3,50.2,96,29.76,2.5,SE,11.5,19.6,N/A,,Overcast,130,2013-02-10 07:15:00
1:35 AM,51.3,50.2,96,29.75,2.5,SE,12.7,18.4,N/A,,Overcast,130,2013-02-10 07:35:00
1:55 AM,50.5,49.6,97,29.72,2.0,ESE,13.8,19.6,N/A,,Overcast,120,2013-02-10 07:55:00
2:15 AM,50.7,50.0,97,29.71,1.2,ESE,12.7,16.1,N/A,,Overcast,120,2013-02-10 08:15:00
2:35 AM,52.0,51.3,97,29.70,1.2,SE,9.2,16.1,N/A,,Drizzle,130,2013-02-10 08:35:00
2:55 AM,53.2,52.5,97,29.73,1.5,SSE,8.1,-,N/A,,Drizzle,150,2013-02-10 08:55:00
3:15 AM,53.6,52.7,97,29.72,1.5,SSE,8.1,17.3,N/A,Rain,Light Rain,150,2013-02-10 09:15:00
3:35 AM,53.6,52.9,97,29.71,2.0,SE,8.1,-,N/A,Rain-Thunderstorm,Thunderstorms and Rain,140,2013-02-10 09:35:00
3:55 AM,54.1,53.6,98,29.68,2.5,SE,10.4,17.3,N/A,Rain-Thunderstorm,Thunderstorms and Rain,130,2013-02-10 09:55:00
4:15 AM,54.5,53.8,97,29.67,2.5,SE,6.9,17.3,N/A,Rain-Thunderstorm,Heavy Thunderstorms and Rain,130,2013-02-10 10:15:00
4:35 AM,56.1,55.4,97,29.70,3.0,SSE,18.4,24.2,N/A,Rain-Thunderstorm,Thunderstorms and Rain,160,2013-02-10 10:35:00
4:55 AM,57.7,56.7,96,29.70,7.0,SSW,17.3,26.5,N/A,Rain-Thunderstorm,Rain,200,2013-02-10 10:55:00
5:15 AM,57.2,55.4,94,29.68,10.0,South,15.0,24.2,N/A,Rain-Thunderstorm,Thunderstorms and Rain,190,2013-02-10 11:15:00
5:35 AM,57.2,55.4,94,29.71,10.0,SSW,13.8,-,N/A,Rain,Light Rain,210,2013-02-10 11:35:00
5:55 AM,57.2,55.8,95,29.72,4.0,SW,13.8,19.6,N/A,,Light Drizzle,230,2013-02-10 11:55:00
6:15 AM,57.4,55.9,95,29.72,10.0,North,-9999.0,-,N/A,,Overcast,0,2013-02-10 12:15:00
6:35 AM,57.2,54.9,92,29.73,10.0,North,-9999.0,-,N/A,,Mostly Cloudy,0,2013-02-10 12:35:00
6:55 AM,56.5,53.8,91,29.74,10.0,North,-9999.0,-,N/A,,Overcast,0,2013-02-10 12:55:00
7:15 AM,55.4,51.1,85,29.76,10.0,West,12.7,18.4,N/A,,Mostly Cloudy,270,2013-02-10 13:15:00
7:35 AM,54.1,45.7,73,29.76,10.0,West,12.7,-,N/A,,Mostly Cloudy,280,2013-02-10 13:35:00
7:55 AM,52.7,41.2,65,29.77,10.0,West,10.4,-,N/A,,Mostly Cloudy,280,2013-02-10 13:55:00
8:15 AM,51.8,39.2,62,29.77,10.0,WNW,8.1,-,N/A,,Mostly Cloudy,290,2013-02-10 14:15:00
8:35 AM,52.0,39.4,62,29.78,10.0,West,6.9,-,N/A,,Scattered Clouds,270,2013-02-10 14:35:00
8:55 AM,54.5,37.8,53,29.78,10.0,West,9.2,-,N/A,,Clear,270,2013-02-10 14:55:00
9:15 AM,54.9,36.1,49,29.80,10.0,West,6.9,-,N/A,,Clear,270,2013-02-10 15:15:00
9:35 AM,56.5,34.5,44,29.81,10.0,West,12.7,-,N/A,,Clear,280,2013-02-10 15:35:00
9:55 AM,56.7,32.2,40,29.81,10.0,West,12.7,-,N/A,,Clear,280,2013-02-10 15:55:00
10:15 AM,58.3,32.5,38,29.82,10.0,West,12.7,-,N/A,,Clear,280,2013-02-10 16:15:00
10:35 AM,59.5,32.2,36,29.82,10.0,West,16.1,20.7,N/A,,Clear,270,2013-02-10 16:35:00
10:55 AM,59.2,31.5,35,29.83,10.0,West,13.8,20.7,N/A,,Clear,270,2013-02-10 16:55:00
11:15 AM,58.6,30.4,34,29.84,10.0,West,12.7,-,N/A,,Clear,280,2013-02-10 17:15:00
11:35 AM,61.3,29.8,30,29.83,10.0,West,13.8,19.6,N/A,,Clear,280,2013-02-10 17:35:00
11:55 AM,62.2,30.4,30,29.82,10.0,West,13.8,19.6,N/A,,Clear,280,2013-02-10 17:55:00
12:15 PM,63.1,28.4,27,29.81,10.0,North,-9999.0,-,N/A,,Clear,0,2013-02-10 18:15:00
12:35 PM,62.1,27.7,27,29.81,10.0,West,13.8,18.4,N/A,,Clear,270,2013-02-10 18:35:00
12:55 PM,63.7,29.7,28,29.80,10.0,West,12.7,20.7,N/A,,Clear,280,2013-02-10 18:55:00
1:15 PM,63.5,27.1,25,29.80,10.0,West,13.8,-,N/A,,Clear,280,2013-02-10 19:15:00
1:35 PM,63.7,27.3,25,29.80,10.0,North,-9999.0,-,N/A,,Clear,0,2013-02-10 19:35:00
1:55 PM,64.0,28.6,26,29.80,10.0,WNW,10.4,19.6,N/A,,Clear,290,2013-02-10 19:55:00
2:15 PM,63.7,28.2,26,29.80,10.0,North,-9999.0,-,N/A,,Clear,0,2013-02-10 20:15:00
2:35 PM,64.4,28.9,26,29.81,10.0,West,12.7,19.6,N/A,,Clear,270,2013-02-10 20:35:00
3:15 PM,65.1,27.9,25,29.81,10.0,North,-9999.0,-,N/A,,Clear,0,2013-02-10 21:15:00
3:35 PM,64.9,27.0,24,29.82,10.0,West,15.0,-,N/A,,Clear,280,2013-02-10 21:35:00
3:55 PM,65.5,27.9,24,29.82,10.0,West,12.7,-,N/A,,Clear,270,2013-02-10 21:55:00
4:15 PM,65.7,27.9,24,29.83,10.0,WNW,13.8,20.7,N/A,,Clear,290,2013-02-10 22:15:00
4:35 PM,65.1,26.2,23,29.83,10.0,West,11.5,19.6,N/A,,Clear,280,2013-02-10 22:35:00
4:55 PM,62.4,26.8,26,29.84,10.0,West,6.9,20.7,N/A,,Clear,270,2013-02-10 22:55:00
5:15 PM,62.4,28.4,28,29.85,10.0,WNW,8.1,-,N/A,,Clear,300,2013-02-10 23:15:00
5:35 PM,59.7,28.2,30,29.86,10.0,North,5.8,-,N/A,,Clear,350,2013-02-10 23:35:00
5:55 PM,58.3,28.4,32,29.87,10.0,NNW,5.8,-,N/A,,Clear,330,2013-02-10 23:55:00
6:15 PM,57.2,28.2,33,29.88,10.0,West,6.9,-,N/A,,Clear,280,2013-02-11 00:15:00
6:35 PM,56.3,27.7,33,29.89,10.0,North,-9999.0,-,N/A,,Clear,0,2013-02-11 00:35:00
6:55 PM,55.6,26.8,33,29.90,10.0,North,-9999.0,-,N/A,,Clear,0,2013-02-11 00:55:00
7:15 PM,55.2,26.2,33,29.91,10.0,North,-9999.0,-,N/A,,Clear,0,2013-02-11 01:15:00
7:35 PM,54.5,26.1,33,29.92,10.0,North,-9999.0,-,N/A,,Clear,0,2013-02-11 01:35:00
7:55 PM,55.0,25.9,33,29.93,10.0,West,5.8,-,N/A,,Clear,260,2013-02-11 01:55:00
8:15 PM,54.7,25.9,33,29.94,10.0,West,5.8,-,N/A,,Clear,270,2013-02-11 02:15:00
8:35 PM,54.0,26.4,35,29.96,10.0,West,4.6,-,N/A,,Clear,260,2013-02-11 02:35:00
8:55 PM,54.3,26.1,34,29.97,10.0,West,3.5,-,N/A,,Clear,270,2013-02-11 02:55:00
9:15 PM,53.6,26.2,35,29.98,10.0,North,-9999.0,-,N/A,,Clear,0,2013-02-11 03:15:00
9:35 PM,50.9,27.5,40,29.99,10.0,North,-9999.0,-,N/A,,Clear,0,2013-02-11 03:35:00
9:55 PM,50.0,27.7,42,30.00,10.0,North,-9999.0,-,N/A,,Clear,0,2013-02-11 03:55:00
10:15 PM,51.8,26.6,38,30.00,10.0,WNW,5.8,-,N/A,,Clear,290,2013-02-11 04:15:00
10:35 PM,50.5,27.0,40,30.01,10.0,WNW,6.9,-,N/A,,Clear,290,2013-02-11 04:35:00
10:55 PM,48.4,28.0,45,30.00,10.0,NW,6.9,-,N/A,,Clear,320,2013-02-11 04:55:00
11:15 PM,47.7,30.2,51,30.02,10.0,North,8.1,17.3,N/A,,Clear,350,2013-02-11 05:15:00
11:35 PM,46.6,29.1,51,30.02,10.0,North,6.9,-,N/A,,Clear,10,2013-02-11 05:35:00
11:55 PM,45.7,30.2,55,30.02,10.0,North,9.2,-,N/A,,Clear,10,2013-02-11 05:55:00